Powrót do katalogu

COSMOS 2392 DEB

AktywnyLEO
NORAD 43372·DEBRIS·🇷🇺 Russia

Wystrzelony Jul 25, 2002 z Baikonur Cosmodrome

Loading…

Następne Przeloty (najbliższe 24 godziny)

TLE

ŚwieżeSource: Space-Track

Epoka: Sep 13, 2026, 11:37 UTC

1 43372U 02037BW  26256.48424313 -.00003838  00000-0 -28403-1 0  9993
2 43372  63.4363  50.5174 0271959 343.6545  15.5780 12.30060855425671

Śledź COSMOS 2392 DEB w czasie rzeczywistym z AllMySat

Download on the App Store